TimeEST,TemperatureF,Dew PointF,Humidity,Sea Level PressureIn,VisibilityMPH,Wind Direction,Wind SpeedMPH,Gust SpeedMPH,PrecipitationIn,Events,Conditions,WindDirDegrees,DateUTC
12:51 AM,30.0,24.1,79,29.63,-9999.0,NE,18.4,27.6,N/A,,Unknown,40,2013-01-30 05:51:00
1:51 AM,28.9,24.1,82,29.62,-9999.0,NE,19.6,31.1,N/A,,Unknown,40,2013-01-30 06:51:00
2:51 AM,28.0,23.0,81,29.61,-9999.0,NE,21.9,28.8,N/A,,Unknown,40,2013-01-30 07:51:00
3:51 AM,28.0,19.9,72,29.59,-9999.0,NE,18.4,28.8,N/A,,Unknown,40,2013-01-30 08:51:00
4:51 AM,28.0,19.9,72,29.57,-9999.0,NE,18.4,28.8,N/A,,Unknown,40,2013-01-30 09:51:00
5:51 AM,27.0,19.0,72,29.58,-9999.0,NNE,24.2,29.9,N/A,,Unknown,30,2013-01-30 10:51:00
6:51 AM,27.0,19.9,75,29.57,-9999.0,NE,18.4,28.8,N/A,,Unknown,40,2013-01-30 11:51:00
7:51 AM,25.0,19.0,78,29.58,-9999.0,NE,23.0,31.1,N/A,,Unknown,40,2013-01-30 12:51:00
8:51 AM,21.9,18.0,85,29.58,-9999.0,NE,24.2,36.8,N/A,,Unknown,40,2013-01-30 13:51:00
9:51 AM,19.9,17.1,89,29.58,-9999.0,NE,21.9,31.1,N/A,,Unknown,40,2013-01-30 14:51:00
10:51 AM,19.0,17.1,92,29.58,-9999.0,NE,19.6,28.8,N/A,,Unknown,40,2013-01-30 15:51:00
11:51 AM,19.0,16.0,88,29.56,-9999.0,NE,19.6,28.8,N/A,,Unknown,40,2013-01-30 16:51:00
12:51 PM,19.0,15.1,85,29.54,-9999.0,NE,18.4,33.4,N/A,,Unknown,40,2013-01-30 17:51:00
1:51 PM,18.0,15.1,88,29.50,-9999.0,NE,25.3,32.2,N/A,,Unknown,50,2013-01-30 18:51:00
2:51 PM,18.0,14.0,84,29.51,-9999.0,NE,24.2,33.4,N/A,,Unknown,50,2013-01-30 19:51:00
3:51 PM,17.1,14.0,88,29.51,-9999.0,NE,24.2,31.1,N/A,,Unknown,50,2013-01-30 20:51:00
4:51 PM,17.1,14.0,88,29.50,-9999.0,NE,24.2,31.1,N/A,,Unknown,40,2013-01-30 21:51:00
5:51 PM,17.1,14.0,88,29.50,-9999.0,NNE,21.9,34.5,N/A,,Unknown,30,2013-01-30 22:51:00
6:51 PM,16.0,12.0,84,29.49,-9999.0,NE,28.8,38.0,N/A,,Unknown,40,2013-01-30 23:51:00
7:51 PM,15.1,12.0,88,29.50,-9999.0,NNE,26.5,42.6,N/A,,Unknown,30,2013-01-31 00:51:00
8:51 PM,16.0,12.9,88,29.49,-9999.0,NE,27.6,38.0,N/A,,Unknown,50,2013-01-31 01:51:00
9:51 PM,16.0,12.0,84,29.49,-9999.0,NE,26.5,35.7,N/A,,Unknown,50,2013-01-31 02:51:00
10:51 PM,15.1,12.0,88,29.49,-9999.0,NE,25.3,34.5,N/A,,Unknown,50,2013-01-31 03:51:00
11:51 PM,15.1,10.9,84,29.49,-9999.0,NE,19.6,32.2,N/A,,Unknown,40,2013-01-31 04:51:00